sat.trackr.live / text

‹ back to catalog

STARLINK-30122

NORAD 56688 · 2023-067A

PAYLOAD ACTIVE UNKNOWN

§ Identity

Operator
Country
US
Launch date
2023-05-19
Launch site
AFETR
Launch vehicle
Mass (kg)
RCS (m²)

Purposes: comms

External: N2YO · Heavens-Above · Gunter

§ Orbital elements

Epoch: 2026-05-24T15:26:59.490240Z

Period
94.27 min
Inclination
43.0019°
Eccentricity
0.0001400
Mean motion
15.27581756 rev/d
Perigee alt
482.1 km
Apogee alt
484.0 km
Semi-major
6,861.2 km
B*
1.0935e-5
RAAN
209.1084°
Arg perigee
275.1333°
Mean anomaly
84.9358°
Rev number
16,730

§ Raw data

STARLINK-301221 56688U 23067A   26144.64374410  .00000039  00000+0  10935-4 0  99902 56688  43.0019 209.1084 0001400 275.1333  84.9358 15.27581756167306

JSON: /api/v1/satellites/56688 · /tle

For live sub-satellite position, see the globe view (requires WebGL).

§ Visibility from observer

Set your observer location to see the next 7 days of passes ≥ 10°. The values pass through the URL so the page stays shareable.

No JS? Fill the form by hand. The geolocation button needs JavaScript.